Starlink 2540

decayed
NORAD ID: 48290 Int'l Des: 2021-036 Owner: SPXS Country: US Constellation: starlink
LEOCIRCULARSTARLINK_TYPE
グループ

Starlink 2540について

説明を読み込み中...

高度履歴

Altitude vs Time

uPlot chart will show altitude changes over time

軌道要素

1 48290U 21036Q 26013.73557935 .13297263 12472-4 33760-3 0 9996
2 48290 53.0304 292.7660 0004390 227.1640 132.9040 16.45769045260521
Epoch: Jan 13, 2026 • Age: 1198 hours

現在のステータス

Position data unavailable
打ち上げ日 Apr 29, 2021
運用期間 4.8 years
落下予定日 Jan 13, 2026
タイプ internet

技術仕様

分類 Payload
質量 260.00 kg
乾燥質量 248.00 kg
総質量 260.00 kg
長さ 0.20 m
直径 2.80 m
スパン 9.00 m
形状 Box + pan
製造者 SPXS
バスタイプ Starlink
フェーズステータス Unknown Transfer Status
所有者/国 SPXS/US

大規模コンステレーション

Loading constellations...